Home   Weather   Greenville   Past weeks
Flag for USA

Past Weather in Greenville, South Carolina, USA — Yesterday and Last 2 Weeks

Now
62 °F

Scattered clouds.


Feels Like: 62 °F
Forecast: 75 / 54 °F
Wind: 3 mph from North

Location: Greenville Downtown Airport

Current Time: Oct 15, 2019 at 10:20:17 am

Latest Report: Oct 15, 2019 at 8:53 am


Visibility: 10 mi

Pressure: 30.13 "Hg

Humidity: 67%

Dew Point: 51 °F

Location of GreenvilleLocation

Past Weather in Greenville — Graph

°F

Greenville Temperature Yesterday

Maximum temperature yesterday: 79 °F (at 3:53 pm)
Minimum temperature yesterday: 56 °F (at 6:53 am)
Average temperature yesterday: 64 °F

High & Low Weather Summary for the Past Weeks

 TemperatureHumidityPressure
High98 °F (Oct 2, 3:53 pm)100% (Oct 14, 3:53 am)30.30 "Hg (Oct 14, 3:53 am)
Low56 °F (Oct 14, 6:53 am)25% (Oct 3, 2:53 pm)29.93 "Hg (Oct 2, 5:53 pm)
Average72 °F71%30.10 "Hg
* Reported Sep 30 8:53 am — Oct 15 8:53 am, Greenville. Weather by CustomWeather, © 2019

Note: Actual official high and low records may vary slightly from our data, if they occured in-between our weather recording intervals... More about our weather records

Advertising

Greenville Weather History for the Previous 24 Hours

Scroll right to see more
 ConditionsComfort  
Time TempWeatherWind HumidityBarometerVisibility
8:53 am
Tue, Oct 15
62 °FScattered clouds.3 mph67%30.13 "Hg10 mi
7:53 am59 °FPassing clouds.No wind81%30.12 "Hg10 mi
6:53 am58 °FOvercast.No wind84%30.13 "Hg10 mi
5:53 am57 °FPassing clouds.No wind87%30.11 "Hg10 mi
4:53 am59 °FPassing clouds.No wind81%30.09 "Hg10 mi
3:53 am61 °FClear.3 mph67%30.09 "Hg10 mi
2:53 am59 °FClear.No wind81%30.10 "Hg10 mi
1:53 am58 °FClear.No wind84%30.09 "Hg10 mi
12:53 am59 °FClear.3 mph84%30.09 "Hg10 mi
11:53 pm
Mon, Oct 14
60 °FClear.No wind80%30.11 "Hg10 mi
10:53 pm61 °FClear.3 mph72%30.10 "Hg10 mi
9:53 pm66 °FClear.No wind56%30.10 "Hg10 mi
8:53 pm66 °FClear.3 mph59%30.09 "Hg10 mi
7:53 pm70 °FClear.3 mph47%30.08 "Hg10 mi
6:53 pm72 °FSunny.3 mph43%30.07 "Hg10 mi
5:53 pm75 °FSunny.6 mph34%30.05 "Hg10 mi
4:53 pm77 °FSunny.6 mph30%30.06 "Hg10 mi
3:53 pm79 °FSunny.5 mph29%30.06 "Hg10 mi
2:53 pm76 °FSunny.No wind30%30.06 "Hg10 mi
1:53 pm75 °FSunny.7 mph32%30.07 "Hg10 mi
12:53 pm73 °FSunny.6 mph38%30.11 "Hg10 mi
11:53 am71 °FSunny.3 mph41%30.11 "Hg10 mi
10:53 am67 °FSunny.3 mph51%30.11 "Hg10 mi
Weather by CustomWeather, © 2019

See weather overview